Retour au catalogue

COSMOS 1818 COOLANT

ActifLEO
NORAD 34174·DEBRIS·🇷🇺 Russia

Lancé Feb 1, 1987 depuis Baikonur Cosmodrome

Loading…

Prochains Passages (prochaines 24 heures)

TLE

PériméSource: Space-Track

Époque: Sep 7, 2026, 09:11 UTC

1 34174U 87011E   26250.38283520  .00000571  00000-0  20374-3 0  9994
2 34174  65.0005 289.8811 0021989 279.7254  93.5561 14.42148848355689

Suivez COSMOS 1818 COOLANT en temps réel avec AllMySat

Download on the App Store